Location: Arthez
(43.0833°N, 0.2500°W)
Time: 21:46:22
(UTC+00:00)

Daily predictions for brighter satellites

Satellite Brightness Start Highest point End
(mag) Time Altitude Azimuth Time Altitude Azimuth Time Altitude Azimuth
SMAP 3.1 17:24:25 10° SSE 17:29:04 90° NNE 17:33:45 10° NNW
Cosmos 371 Rocket 4.0 17:26:37 10° SSE 17:30:59 34° ESE 17:35:23 10° NE
Cosmos 1697 Rocket 4.2 17:25:45 10° SW 17:31:00 38° WNW 17:36:16 10° N
deb Chang Zheng 4 3.9 17:27:57 10° SE 17:31:53 42° ENE 17:35:53 10° N
CZ-2D R/B 3.6 17:28:16 10° SE 17:31:56 44° ENE 17:35:38 10° N
CZ-2C R/B 3.0 17:32:21 10° WSW 17:35:16 22° S 17:38:02 10° SE
Cosmos 2123 Rocket 4.4 17:30:58 10° N 17:36:54 40° ENE 17:42:46 10° SE
Okean 1-7 Rocket 4.3 17:33:27 10° NNE 17:37:24 31° ENE 17:41:21 10° SE
COSMO-SKYMED 1 3.2 17:35:29 10° NNE 17:39:30 35° E 17:43:29 10° SSE
Cosmos 1953 2.3 17:36:16 10° S 17:40:19 84° E 17:44:24 10° N
CZ-4C R/B 4.2 17:38:47 10° NE 17:41:22 20° E 17:43:53 10° SE
Meteor 1-21 Rocket 4.3 17:35:33 10° N 17:41:28 81° E 17:47:23 10° SSE
Cosmos 1908 3.4 17:38:26 10° S 17:42:18 79° W 17:46:11 10° N
BREEZE M DEB (TANK) 4.2 17:38:58 10° WNW 17:42:56 84° SSW 18:10:17 10° ESE
Cosmos 1844 Rocket 4.0 17:41:23 10° N 17:45:21 19° NE 17:49:17 10° E
Tiangong 1.4 17:43:00 10° WSW 17:46:10 60° S 17:49:04 12° E
Cosmos 1892 Rocket 3.5 17:42:00 10° N 17:46:28 78° E 17:50:52 10° SSE
Iridium 4 Rocket 3.8 17:44:53 10° NNE 17:49:18 40° E 17:54:05 10° SSE
Cosmos 724 4.3 17:45:34 10° NNW 17:51:32 83° NE 17:57:21 10° SE
Meteor 2-10 Rocket 4.4 17:53:57 10° SSE 17:58:46 30° E 18:03:25 10° NNE
MOS 1-B 4.5 17:53:21 10° SSE 17:59:08 84° WSW 18:04:58 10° NNW
Cosmos 2278 4.4 17:53:39 10° SW 17:59:13 57° WNW 18:04:51 10° NNE
Cosmos 1408 4.5 17:59:01 10° NE 18:00:10 13° ENE 18:00:10 13° ENE
Cosmos 44 4.4 17:57:00 10° S 18:01:35 29° ESE 18:05:39 12° ENE
NOSS 8 (E) 4.3 18:01:25 10° SW 18:05:01 85° NW 18:07:57 11° NE
CZ-4 R/B 2.3 18:02:45 10° SE 18:06:10 27° ENE 18:09:38 10° N
SL-19 R/B 4.4 18:04:19 10° NNE 18:10:00 82° WNW 18:15:33 10° SSW
Cosmos 1626 Rocket 3.7 18:05:55 10° N 18:10:04 45° ENE 18:14:13 10° SSE
NOSS 2-3 (E) 3.4 18:07:00 10° SSW 18:10:55 71° ESE 18:15:25 10° NE
SL-16 R/B 2.2 18:06:27 10° SSW 18:12:04 70° ESE 18:17:44 10° NNE
ATLAS 5 CENTAUR R/B 3.2 18:08:50 10° WSW 18:12:13 27° NW 18:16:01 10° NNE
H-2A R/B 2.3 18:06:59 10° SSE 18:12:22 83° WSW 18:17:51 10° NNW
USA 215 4.1 18:06:40 10° NE 18:12:47 44° NNW 18:18:53 10° W
Cosmos 1300 2.5 18:10:14 10° S 18:14:01 77° E 18:17:50 10° N
USA 229 DEB 3.8 18:09:37 10° S 18:15:35 46° ESE 18:21:56 10° NE
USA 229 3.8 18:09:45 10° S 18:15:42 46° ESE 18:22:02 10° NE
H-2A R/B 2.8 18:11:56 10° SE 18:16:01 43° ENE 18:19:58 10° N
IRAS Rocket 4.4 18:14:57 10° NNE 18:20:21 50° ESE 18:25:40 10° S
OE (NEXTSAT) 4.2 18:18:47 10° WSW 18:22:13 83° NNW 18:23:44 31° ENE
Cosmos 1605 Rocket 4.0 18:16:49 10° S 18:22:56 59° E 18:29:10 10° NNE
CZ-4 R/B 4.4 18:20:37 10° SSE 18:24:44 87° ENE 18:28:54 10° NNW
Cosmos 2322 Rocket 2.1 18:19:27 10° SSW 18:25:00 67° ESE 18:30:35 10° NNE
Cosmos 304 Rocket 3.7 18:21:06 10° S 18:25:50 66° ESE 18:30:36 10° NNE
Cosmos 220 Rocket 4.3 18:22:19 10° S 18:26:33 46° ESE 18:30:17 13° NE
SKYMED 2 3.9 18:23:17 10° N 18:27:37 69° WNW 18:31:55 10° SSW
YAOGAN 1 2.6 18:27:12 10° SSE 18:31:24 52° ENE 18:35:37 10° N
Feng Yun 1-1 Rocket 4.2 18:26:20 10° SSE 18:31:51 72° ENE 18:37:34 10° N
Cosmos 2219 Rocket 4.1 18:29:37 10° SE 18:30:02 11° SE 18:30:02 11° SE
Cosmos 1844 4.3 18:29:27 10° N 18:34:47 36° NE 18:36:47 28° E
Cosmos 2360 Rocket 2.4 18:30:00 10° S 18:35:23 49° ESE 18:40:24 12° NE
H-2A R/B 2.3 18:33:54 21° NE 18:36:15 39° E 18:40:11 10° S
NOSS 3-1 (A) 3.1 18:32:53 10° SSW 18:38:00 66° ESE 18:42:42 16° NE
Cosmos 2333 Rocket 3.3 18:34:29 10° SSE 18:37:49 24° ESE 18:37:49 24° ESE
HJ-1C 3.9 18:41:54 41° NNE 18:41:54 41° NNE 18:44:21 10° N
BREEZE-M R/B 2.8 18:40:54 10° WNW 18:44:17 56° NNE 18:45:40 37° E
Cosmos 332 Rocket 3.8 18:39:27 10° SSW 18:44:21 82° WNW 18:49:16 10° NNE
ARGOS 3.4 18:40:09 10° S 18:45:31 70° WSW 18:50:57 10° NNW
USA 267 4.0 18:40:08 10° SSE 18:46:26 51° SW 18:52:47 10° WNW
CZ-4B R/B 4.4 18:41:07 10° S 18:46:31 46° W 18:51:57 10° NNW
MetOp-A 4.3 18:46:55 30° ESE 18:49:04 46° ENE 18:54:11 10° N
Cosmos 2251 Rocket 3.4 18:47:33 10° NNW 18:52:48 68° ENE 18:55:32 28° SE
Spot 2 4.3 18:50:12 10° S 18:54:17 66° WSW 18:58:37 10° NNW
Okean O Rocket 3.2 18:51:02 10° SSW 18:55:02 36° W 18:59:05 10° NNW
In-Cosmos 22 Rocket 3.9 18:49:55 10° N 18:55:16 77° E 19:00:34 10° SSE
Cosmos 2263 Rocket 4.2 18:51:52 10° NW 18:56:33 28° WSW 19:01:13 10° SSW
Cosmos 407 Rocket 4.2 18:52:15 10° N 18:56:49 36° NE 18:56:49 36° NE
NOSS 2-3 (D) 4.4 18:54:38 10° WSW 18:58:32 47° NW 19:01:33 19° NNE
X-37B 1.7 18:57:28 10° WNW 18:59:34 40° W 18:59:34 40° W
Cosmos 1140 Rocket 4.2 18:55:59 10° N 19:00:02 34° NE 19:00:02 34° NE
Cosmos 2344 4.3 18:51:55 10° NW 19:01:13 77° NE 19:11:48 17° SE
CSL-04 Debris 4.2 19:00:03 43° ESE 19:01:28 55° ENE 19:06:45 10° N
Meteor 1-4 Rocket 3.5 18:59:15 10° SSW 19:02:36 44° WNW 19:05:57 10° N
NOSS 3-1 (C) 4.0 18:57:57 10° WSW 19:03:05 50° NW 19:08:48 11° NNE
SL-8 R/B 4.4 18:59:00 10° WNW 19:03:36 44° N 19:04:36 38° NNE
DMSP B5D1-3 4.4 19:00:37 10° NNE 19:05:48 90° E 19:10:57 10° SSW
CZ-2C R/B 3.9 19:01:52 10° N 19:07:07 43° WNW 19:12:17 10° SW
Lacrosse 4 Rocket 1.8 19:03:33 10° NW 19:07:51 64° WSW 19:09:21 38° S
Cosmos 1892 2.7 19:04:28 10° N 19:07:58 72° NW 19:07:58 72° NW
Cosmos 1932 4.3 19:05:34 10° NNW 19:11:48 69° NE 19:13:18 51° ESE
Cosmos 1602 Rocket 4.3 19:08:24 10° NNW 19:12:38 52° W 19:16:49 10° S
CSL-04 Rocket 3.6 19:12:58 56° ESE 19:13:52 65° ENE 19:19:22 10° N
CZ-2C R/B 3.6 19:12:56 10° SW 19:13:59 11° SSW 19:13:59 11° SSW
IRS-1C Rocket 4.1 19:11:06 18° SSE 19:15:06 83° WSW 19:20:24 10° NNW
Okean-O 2.5 19:16:36 83° N 19:16:36 83° N 19:20:54 10° NNW
Orbus 7S? 3.8 19:11:48 10° NW 19:19:15 69° NNE 19:19:15 69° NNE
Tiangong 3.4 19:19:45 10° W 19:21:18 25° WSW 19:21:18 25° WSW
Meteor 2-11 Rocket 4.3 19:19:17 10° S 19:25:26 87° E 19:31:38 10° N
Cosmos 1844 Rocket 2.7 19:24:17 10° NNW 19:29:51 74° WSW 19:31:01 55° S
CZ-4 R/B 3.6 19:37:47 10° SSW 19:41:05 25° W 19:44:28 10° NW
Cosmos 44 4.4 19:37:24 10° SW 19:42:37 47° NW 19:44:07 37° N
Cosmos 1459 Rocket 4.0 19:38:20 10° S 19:45:26 68° N 19:50:44 10° N
Cosmos 2100 Rocket 3.9 19:38:17 10° S 19:44:36 84° W 19:51:00 10° N
Cosmos 2278 Rocket 4.1 19:46:49 10° N 19:48:42 19° N 19:48:42 19° N
SL-16 R/B 4.5 19:52:32 10° W 19:56:44 21° NW 20:00:58 10° N
Cosmos 2173 Rocket 4.1 19:52:16 10° SSW 19:58:26 71° W 20:04:43 10° N
Milstar 3 Cent rocket 4.4 19:56:07 10° SW 20:01:44 32° S 20:01:44 32° S
Cosmos 2322 Rocket 4.4 20:05:22 10° W 20:09:33 21° NW 20:13:47 10° N
Cosmos 2219 Rocket 4.4 20:11:06 10° SW 20:11:53 14° SW 20:11:53 14° SW
Cosmos 2360 Rocket 4.0 20:14:50 10° WSW 20:19:36 28° NW 20:22:15 20° NNW
Cosmos 2333 Rocket 3.9 20:17:29 10° SW 20:19:57 25° WSW 20:19:57 25° WSW
CENTAUR R/B 4.2 20:41:47 10° NNW 20:46:32 33° N 20:46:32 33° N
